Regional Weather Roundup
Issued by NWS

Home | Current Version | Previous Version | Text Only | Print | Product List | Glossary Off
Versions: 1 2 3 4 5 6 7 8 9 10 11 12 13 14 15 16 17 18 19 20 21 22 23 24 25 26 27 28 29 30 31 32 33 34 35 36 37 38 39 40 41 42 43 44 45 46 47 48 49 50

000
ASUS43 KMKX 011000
RWRWI

WISCONSIN REGIONAL WEATHER ROUNDUP
NATIONAL WEATHER SERVICE MILWAUKEE/SULLIVAN WI
500 AM CDT TUE SEP 01 2015

NOTE: "FAIR" INDICATES FEW OR NO CLOUDS BELOW 12,000 FEET WITH NO
SIGNIFICANT WEATHER AND/OR OBSTRUCTIONS TO VISIBILITY.

WIZ001-002-006>008-014>016-023>028-011100-
NORTHWEST WISCONSIN

CITY           SKY/WX    TMP DP  RH WIND       PRES   REMARKS
SUPERIOR ARPT  CLOUDY    71  70  96 CALM      29.87S
ASHLAND        PTCLDY    71  71 100 SW5       29.90S FOG
HAYWARD        PTCLDY    69  68  96 CALM      29.94R FOG
SIREN          MOCLDY    70  69  96 SE6       29.91S FOG
CUMBERLAND     FOG       64  64 100 CALM      29.94S VSB<1/4
RICE LAKE      FOG       67  66  96 CALM      29.95S VSB<1/4
CHETEK         FOG      N/A N/A N/A CALM      29.94F VSB 1/4
LADYSMITH      FOG       68  67  96 CALM      29.98R VSB 1
EAU CLAIRE     NOT AVBL
MENOMONIE      FOG       66  66  99 E5        29.93S VSB<1/4
NEW RICHMOND   MOCLDY    69  68  98 S5        29.93S FOG
OSCEOLA        MOCLDY    70  70 100 S6        29.94S FOG
$$

WIZ003>005-009-010-017-018-011100-
NORTH CENTRAL WISCONSIN

CITY           SKY/WX    TMP DP  RH WIND       PRES   REMARKS
MANITOWISH WTR CLOUDY    69  69 100 SW5       29.97S FOG
ARBOR VITAE    CLOUDY    68  67  96 SW5       29.98S FOG
WOODRUFF       CLOUDY    68  67  96 SW5       29.98S FOG
RHINELANDER    CLEAR     68  67  96 SW5       30.00S FOG
EAGLE RIVER    CLEAR     67  67 100 CALM      29.99S FOG
LAND O LAKES   CLOUDY    68  67  98 CALM      29.99F FOG
PHILLIPS       MOCLDY    67  67 100 CALM      29.97S FOG
TOMAHAWK       FOG       65  64  96 CALM      29.99S VSB 1/2
MEDFORD        CLEAR     66  66 100 S6        29.98S FOG
MERRILL        FOG       60  60 100 NE3       29.99S VSB 1
$$

WIZ029-030-035-036-043>047-011100-
CENTRAL WISCONSIN

CITY           SKY/WX    TMP DP  RH WIND       PRES   REMARKS
WAUSAU         MOCLDY    66  65  96 SE6       29.97F FOG
MOSINEE        MOCLDY    64  64 100 S5        30.00S FOG
MARSHFIELD     FOG       65  62  90 S5        29.98S VSB 1/2
STEVENS POINT  MOCLDY    64  63  95 CALM      29.99S
WAUPACA        CLEAR     65  64  97 CALM      29.99S FOG
WAUTOMA        CLOUDY    63  63 100 CALM      29.99S FOG
WISC RAPIDS    MOCLDY    67  64  90 CALM      29.99S FOG
CAMP DOUGLAS   NOT AVBL
$$

WIZ011>013-019>022-031-037>040-048>050-011100-
NORTHEAST WISCONSIN

CITY           SKY/WX    TMP DP  RH WIND       PRES   REMARKS
ANTIGO         MOCLDY    66  66  99 SW6       30.01S FOG
SHAWANO          N/A     67  66  94 CALM      29.99S FOG
OCONTO         CLOUDY    62  62 100 CALM      29.99S VSB 1/2
STURGEON BAY   CLEAR     66  63  88 S3        30.02S
GREEN BAY      CLEAR     66  65  96 S6        29.99F FOG
MANITOWOC      NOT AVBL
APPLETON       FOG       64  64 100 CALM      29.99S VSB 1/4
CLINTONVILLE   FOG       61  61 100 CALM      29.99S VSB<1/4
OSHKOSH        CLEAR     68  66  93 S8        29.99S FOG
$$

WIZ032>034-041-042-053>061-011100-
SOUTHWEST WISCONSIN

CITY           SKY/WX    TMP DP  RH WIND       PRES   REMARKS
LA CROSSE      CLEAR     71  69  93 SE6       29.95R FOG
SPARTA         CLEAR     64  62  95 CALM      29.98R FOG
VIROQUA          N/A     69  69 100 S3        29.99R
BOSCOBEL       FOG       66  65  96 CALM      29.98R VSB 1/4
PRAIRIE DU CHI CLEAR     69  68  94 CALM      29.97R FOG
PLATTEVILLE    CLEAR     70  70  99 S7        30.00R
$$

WIZ056-057-062-063-064-067-068-011100-
SOUTH CENTRAL WISCONSIN

CITY           SKY/WX    TMP DP  RH WIND       PRES   REMARKS
REEDSBURG      PTCLDY    70  68  94 CALM      29.98S
BARABOO/DELLS  CLEAR     70  67  89 S6        29.98S
LONE ROCK      NOT AVBL
MINERAL POINT  CLEAR     70  68  94 S5        30.01S FOG
MADISON        CLEAR     70  67  90 CALM      29.99S FOG
MIDDLETON      CLEAR     72  70  93 S7        30.00S
WATERTOWN      CLEAR     67  67 100 CALM      30.01S FOG
MONROE         CLEAR     70  68  94 S9        30.00S FOG
JANESVILLE     CLEAR     68  68 100 CALM      30.01S FOG
$$

WIZ051-052-058>065-066-070>072-011100-
SOUTHEAST WISCONSIN

CITY           SKY/WX    TMP DP  RH WIND       PRES   REMARKS
MILWAUKEE      CLEAR     69  66  90 S3        30.02S FOG
WAUKESHA       CLEAR     64  64 100 CALM      30.03S FOG
MILWAUKEE/TIMM CLEAR     64  61  88 CALM      30.03S FOG
RACINE         CLEAR     70  66  87 S6        30.04S FOG
BURLINGTON     FOG       59  59  99 CALM      30.02S VSB 1/2
KENOSHA        CLEAR     68  66  93 SW6       30.03S
FOND DU LAC    CLEAR     69  67  93 S7        30.00S
SHEBOYGAN      CLEAR     61  61 100 CALM      30.01S FOG
WEST BEND      MOCLDY    63  61  94 CALM      30.02F FOG
JUNEAU           N/A     65  65  99 SE5       30.02S FOG
$$

LSZ147-162-011100-
LAKE SUPERIOR

STATION/POSITION TIME  TEMP    WIND        PRES    WAVE
                       AIR SEA DIR/SP/G            HT/PER
                 (UTC) (F)     (DEG/KT/KT) (MB)    (FT/S)
W MID LAKE BUOY  0850   62 54  210/ 12/ 14 1011.4R   1/ 3
DEVILS ISLAND    0900   69     200/  5/  6 1011.4S
PORT WING        0940   74     200/  5/ 10 1011.9R
SAXON HARBOR     0940   74     190/  3/  8 1012.2R
$$

LMZ867-665-643>646-011100-
LAKE MICHIGAN

STATION/POSITION TIME  TEMP    WIND        PRES    WAVE
                       AIR SEA DIR/SP/G            HT/PER
                 (UTC) (F)     (DEG/KT/KT) (MB)    (FT/S)
CHAMBERS ISLAND  0900   67     180/  5/  8 1015.6S
S GREEN BAY BUOY 0900   66 64  180/  6/  6 1016.9F
N MID LAKE BUOY  0850   64 65  210/ 16/ 17 1015.5R   3/ 4
NORTHPORT PIER   0900   65     170/  4/  7 1015.6S
KEWAUNEE LAKESHO 0900   49     170/  5/  5 1015.1F
SHEBOYGAN LAKESH 0900   65     180/  5/  6 1016.5S
PORT WASHINGTON  0940   56        CALM     1016.9S
ATWATER BUOY     0900   57 50  170/  4/  4 1017.8F
MILWAUKEE LAKESH 0910   59     240/  1/  1   N/A
S MID LAKE BUOY  0850   71 69  180/  8/  8 1016.7R
KENOSHA   LAKESH 0900   64     180/  4/  6 1016.6S
$$

TC  - TEMPERATURE IN CELSIUS
VSB - VISIBILITY IN STATUTE MILES
WCI - WIND CHILL INDEX
HX  - HEAT INDEX



USA.gov is the U.S. government's official web portal to all federal, state and local government web resources and services.